Probability
34 37 39 38 40 45 48 47 43 40 36 28 22 19 19 19 15 16 23 27 24 20 18 17 16 14 12 10 9 9 8 6 4 4 3 1 3 4 4 2 2 2 2
39 41 44 44 46 52 54 51 47 43 38 32 26 23 23 22 18 18 24 27 23 18 16 16 16 15 13 11 10 10 9 7 6 6 5 3 2 3 3 3 3 4 4
43 47 50 51 55 60 60 55 50 47 43 37 31 29 28 25 22 23 26 25 21 17 15 15 16 15 13 12 11 12 11 9 8 9 8 6 4 3 4 4 5 7 8
45 50 55 58 61 62 61 59 57 53 48 42 37 34 31 28 26 26 27 26 22 18 15 16 18 16 13 11 11 12 12 10 8 9 9 8 7 5 4 4 5 6 7
46 51 57 61 63 62 60 62 64 62 55 47 42 39 35 32 30 29 31 29 25 19 16 19 21 19 14 12 12 12 11 10 8 8 9 9 8 6 5 3 3 3 3
45 52 59 63 64 62 62 66 69 68 61 53 48 44 42 39 36 34 34 31 26 21 18 21 24 22 18 15 14 13 13 12 10 9 8 8 8 7 5 3 1 1 0
42 52 62 66 66 65 67 73 75 71 65 59 54 50 46 43 38 35 32 29 26 23 23 25 28 26 22 18 16 15 15 14 13 11 10 9 9 8 6 3 1 0 0
40 51 64 69 67 67 72 80 81 75 68 61 57 54 49 43 37 32 30 29 26 24 26 30 32 30 25 20 18 17 16 17 17 14 12 12 11 10 9 6 2 0 0
38 50 63 66 65 67 74 80 82 79 71 63 58 55 51 45 37 31 30 31 28 25 26 31 32 31 27 24 23 21 20 20 18 15 14 13 13 12 11 8 5 2 1
34 46 59 64 64 67 73 78 81 79 72 65 60 57 54 49 42 35 33 35 32 27 27 29 31 30 28 26 25 24 23 21 18 15 14 13 13 13 11 9 7 6 5
28 39 53 62 64 66 70 75 77 77 73 67 62 60 58 54 46 40 38 38 36 33 31 30 29 30 30 28 26 25 23 20 17 15 15 14 14 14 14 11 9 9 9
28 35 47 58 63 65 69 72 74 74 72 67 61 60 61 57 50 44 41 40 39 38 35 32 29 28 30 31 29 27 25 22 18 16 16 16 15 16 16 14 12 11 10
34 39 49 57 63 68 72 74 74 71 69 65 60 60 62 60 53 48 45 42 40 39 37 35 31 29 30 31 30 29 27 24 20 17 17 16 15 16 16 16 15 13 10
41 48 56 60 63 69 75 76 73 68 67 66 63 63 64 61 55 50 47 43 40 39 38 37 36 32 28 25 27 29 29 26 23 20 17 15 14 14 13 15 15 13 11
41 49 58 62 63 68 73 73 70 67 68 68 66 65 64 62 57 52 49 45 41 39 39 39 37 32 24 18 19 24 26 26 24 20 17 13 11 10 10 10 10 10 10
39 46 56 61 64 67 69 69 67 67 68 68 66 65 64 62 58 54 52 50 45 40 38 38 35 30 21 12 10 14 19 20 19 17 15 12 9 8 7 6 4 4 5
43 47 53 58 61 64 67 66 64 65 66 66 64 63 63 61 58 56 55 55 50 42 37 36 33 27 18 9 5 5 10 12 13 15 15 13 10 9 8 5 3 2 3
46 48 50 52 54 59 62 63 62 63 64 63 61 61 60 60 60 59 57 57 52 44 38 35 31 23 15 9 4 2 5 8 10 12 13 12 10 8 8 7 5 4 5
48 48 49 52 56 59 61 61 61 62 63 63 62 61 59 60 62 60 57 55 51 45 39 33 27 21 14 7 3 2 5 8 8 8 8 8 8 6 6 6 6 6 6
53 54 55 59 64 66 65 63 62 62 63 64 64 63 61 61 61 57 53 51 49 45 38 30 24 20 13 6 2 2 6 9 9 7 6 5 5 4 3 4 6 6 6
57 59 61 65 69 71 70 68 66 64 63 64 64 63 62 59 57 54 50 46 45 42 36 27 21 17 12 5 1 1 5 9 10 9 7 6 4 2 1 2 4 4 4
55 59 62 65 69 71 71 70 68 65 62 60 58 57 56 53 50 49 45 42 40 37 32 26 20 15 9 4 1 1 3 6 8 7 6 5 4 2 1 1 2 2 1
50 54 57 60 64 66 65 64 61 58 55 52 50 49 48 46 43 41 38 35 33 31 28 24 19 14 9 5 2 1 1 2 4 5 4 3 2 1 1 2 2 2 1
40 43 45 48 51 53 52 50 48 47 45 43 42 41 39 36 33 29 26 24 23 23 23 20 17 14 11 7 5 3 2 1 2 3 2 2 1 1 1 2 3 4 3
29 31 33 34 36 38 39 38 37 36 35 35 34 33 30 27 23 18 13 12 12 13 14 14 13 12 9 6 5 4 3 2 2 3 3 2 3 3 3 3 4 4 4
24 26 27 28 29 30 32 32 32 32 31 30 30 28 26 23 19 13 8 6 6 6 7 10 11 9 6 4 4 3 2 1 2 3 3 3 4 4 4 3 3 3 3
Wind_Speed
15 15 14 14 13 12 11 10 8 7 6 5 5 4 4 3 3 4 5 5 4 4 2 1 2 1 1 1 2 1 2 2 2 1 1 2 3 4 3 3 3 5 5
15 15 14 14 14 13 12 10 9 9 8 5 4 4 4 4 3 3 4 5 4 4 4 3 2 2 2 2 2 1 2 2 1 1 1 1 1 2 5 4 4 4 4
16 16 16 15 15 14 14 12 11 10 9 8 5 4 3 2 3 4 4 4 5 4 3 4 3 2 3 3 3 3 3 2 2 2 1 1 1 1 2 4 3 3 3
17 17 17 16 15 15 14 11 11 10 9 8 7 7 6 5 5 4 4 4 5 4 4 4 3 3 2 2 4 4 3 3 3 2 2 2 1 1 1 2 2 4 4
17 18 17 16 15 15 14 12 11 10 10 9 8 7 6 5 4 4 5 4 4 4 5 5 4 3 3 3 3 1 3 2 3 2 2 2 2 3 2 2 2 3 3
15 16 16 14 14 14 14 14 12 11 10 10 9 8 7 5 5 4 5 5 4 4 6 5 4 4 4 3 3 3 4 3 3 3 2 2 2 2 2 3 3 3 3
12 14 16 16 14 14 14 13 13 12 11 11 9 9 7 6 6 5 5 5 4 4 5 6 5 4 4 4 3 4 4 4 4 4 3 2 2 2 2 2 3 3 2
10 13 16 15 15 15 13 13 14 13 12 11 10 8 8 6 5 6 5 4 3 3 4 5 5 5 5 5 4 3 4 4 4 5 3 2 3 2 2 2 2 2 2
10 12 15 15 14 14 14 14 13 13 12 11 10 9 8 7 6 5 5 4 3 4 4 5 5 5 5 4 4 3 4 3 4 4 4 3 3 3 3 2 2 2 3
8 9 10 12 12 11 12 12 12 12 11 10 9 9 8 8 6 5 5 4 4 3 3 4 4 4 4 4 4 3 3 3 3 3 3 3 3 3 3 3 3 2 2
6 7 7 8 10 11 12 11 11 11 11 10 9 7 8 8 7 5 5 5 4 4 4 4 4 4 4 4 3 4 3 4 3 4 4 3 3 2 3 3 2 2 2
4 6 7 7 8 9 10 10 10 10 10 9 8 7 6 7 7 6 5 5 5 4 4 4 4 4 4 4 4 5 4 3 3 3 3 3 3 2 3 3 3 2 2
3 4 5 5 6 7 8 9 9 9 9 9 9 7 6 6 6 5 5 5 5 4 4 4 4 4 3 3 3 3 3 3 3 3 3 2 2 2 3 3 3 2 3
4 4 3 4 5 5 6 8 8 8 8 8 8 7 7 6 5 5 4 4 4 4 3 3 3 2 2 2 2 2 2 2 2 2 1 1 2 3 3 2 2 3 3
4 4 3 4 4 5 5 6 7 7 7 7 7 6 6 6 5 5 4 4 4 4 3 3 2 2 2 1 1 2 2 2 1 1 1 1 1 2 2 2 2 2 2
3 4 4 4 4 4 5 5 6 6 6 6 6 6 5 5 5 5 5 4 3 3 3 3 2 1 1 1 1 1 1 0 0 1 1 1 1 2 1 1 1 1 1
3 4 4 4 3 3 4 5 6 6 6 6 6 6 6 5 5 6 5 4 4 3 3 3 3 3 2 3 3 2 1 1 1 1 1 2 2 2 2 2 2 2 1
4 3 3 3 2 3 4 5 6 6 6 6 6 6 5 5 4 4 4 4 3 3 2 3 3 3 2 3 3 3 1 1 1 1 2 2 3 4 3 2 2 1 1
4 2 2 2 2 2 3 5 6 7 6 6 5 5 5 4 4 4 4 3 3 3 2 3 3 3 3 3 2 2 1 1 1 2 3 3 3 4 4 2 1 1 1
4 3 3 4 4 2 2 4 5 5 5 5 5 5 4 4 4 4 3 3 3 3 3 3 3 4 3 4 4 2 1 2 2 2 3 5 4 4 4 2 1 2 3
5 4 4 4 4 3 3 4 4 3 3 4 4 4 4 4 4 4 4 4 4 4 4 4 4 5 5 5 6 5 2 2 2 2 2 3 4 4 3 2 2 3 4
5 5 4 5 4 4 4 4 4 3 4 4 4 4 4 4 4 4 4 4 4 4 4 4 4 4 4 5 5 5 4 3 3 2 2 3 3 3 4 3 4 6 4
6 5 5 5 5 5 5 5 4 4 4 4 4 5 5 4 5 5 4 3 3 3 3 4 3 4 4 4 6 5 4 4 2 2 3 3 2 2 2 3 4 4 3
5 5 6 5 6 6 5 4 4 4 5 5 5 6 6 7 7 6 5 4 3 3 3 3 3 4 4 4 3 2 3 3 2 2 1 1 2 2 3 3 3 2 3
4 5 5 5 6 5 5 4 4 4 5 6 6 6 6 7 8 8 8 7 6 4 3 4 4 3 4 3 3 2 2 2 2 1 1 1 2 2 3 3 3 3 3
5 5 6 6 6 5 5 5 4 3 5 5 5 5 5 6 7 8 9 14 11 13 14 12 8 6 6 5 7 7 7 7 5 3 3 3 4 4 4 3 3 3 4
Wind_Direction
174 170 168 167 163 161 162 166 171 162 164 170 179 185 185 184 172 166 156 161 171 171 189 171 167 196 179 166 191 215 233 252 254 276 262 243 215 208 192 210 207 195 189
174 171 171 171 169 167 168 170 174 172 179 177 184 185 181 183 178 158 156 172 172 178 191 183 199 179 185 195 208 225 254 256 231 229 277 274 287 256 219 199 211 207 189
174 175 177 177 175 174 175 179 180 175 184 177 181 188 170 188 171 167 171 185 183 191 206 182 205 195 199 190 207 216 234 257 258 230 218 226 240 269 268 223 205 194 195
176 179 181 181 181 178 178 178 176 176 181 183 187 186 182 194 190 178 173 184 189 193 202 199 199 213 228 194 214 205 220 237 261 251 227 231 233 224 280 294 242 212 209
179 180 183 181 183 181 178 178 175 177 179 189 194 196 196 194 180 173 168 181 189 202 208 203 201 208 226 224 225 203 236 236 242 253 240 238 240 235 219 252 260 242 220
180 175 178 175 181 181 180 177 175 178 180 190 194 199 207 196 185 183 175 189 190 203 211 208 197 207 220 221 217 218 239 245 254 261 261 241 234 237 236 245 249 241 234
178 170 171 175 178 181 179 173 172 179 184 191 196 197 206 202 194 198 196 201 202 202 205 207 195 207 210 216 220 214 237 238 247 247 254 263 264 255 251 260 269 269 260
182 174 172 173 178 181 177 174 172 179 186 193 195 196 196 203 207 209 212 207 217 211 197 199 198 207 212 220 210 223 229 225 233 242 239 257 270 270 258 250 261 281 286
176 178 173 173 177 179 179 180 173 178 185 192 191 194 195 203 210 201 208 212 213 213 200 203 203 209 211 220 206 226 235 225 225 240 236 237 259 266 264 258 245 242 269
170 170 168 167 169 175 177 176 174 177 183 188 191 194 196 202 207 207 206 211 212 221 208 213 208 214 214 214 213 225 219 222 233 236 243 243 252 268 275 269 262 242 238
160 151 153 163 165 170 172 172 173 174 179 187 191 194 189 194 200 205 206 209 209 216 211 212 210 212 212 215 216 230 223 220 231 244 242 242 256 274 289 290 293 293 275
135 142 147 159 164 165 167 167 172 176 178 182 184 193 190 188 195 200 205 208 202 205 207 209 215 219 216 211 211 225 226 222 229 245 256 259 259 255 276 289 288 280 267
90 104 121 139 148 155 157 162 168 171 174 176 183 186 191 188 191 195 196 199 199 202 204 204 212 218 218 210 215 219 225 230 237 247 252 255 264 269 267 268 278 283 283
92 91 94 111 126 134 145 154 161 166 168 171 179 180 185 185 185 188 183 186 189 191 187 189 199 198 197 205 218 217 220 236 245 255 274 292 284 280 279 278 280 284 293
97 105 110 108 121 131 139 148 154 160 162 163 170 172 175 175 180 183 183 174 175 182 172 174 183 194 198 252 253 235 221 234 254 290 311 310 339 339 324 302 303 301 296
100 115 110 104 120 132 145 147 146 144 146 156 162 158 164 172 174 175 173 164 165 168 156 160 170 172 171 36 51 7 297 35 20 335 311 285 17 7 19 2 350 332 304
74 91 116 119 128 142 137 145 140 137 144 154 158 158 163 173 174 173 164 162 163 163 162 156 142 118 71 54 68 74 9 23 27 0 344 326 358 6 1 355 21 37 31
72 69 95 111 130 144 143 141 139 142 148 152 154 156 162 168 160 158 156 153 151 153 153 147 130 120 90 74 77 69 94 58 25 22 17 24 18 9 8 2 24 7 2
67 71 90 101 88 102 132 139 141 145 147 149 149 149 155 155 152 158 156 149 148 147 139 124 119 112 81 45 63 77 162 121 79 58 45 41 32 9 9 12 16 345 319
49 50 63 81 79 69 88 123 138 138 144 148 145 144 144 144 147 149 146 140 135 130 125 113 101 96 81 55 64 70 67 85 86 79 65 53 37 23 27 21 8 337 315
51 57 66 73 64 69 95 113 114 117 124 125 129 133 134 141 141 135 135 132 128 121 114 108 99 86 78 71 66 60 49 49 60 60 59 50 39 40 33 26 1 318 310
48 56 72 73 61 57 81 94 91 92 102 110 115 121 121 130 133 121 119 118 119 119 118 112 102 91 81 73 73 70 58 37 45 47 54 48 36 34 26 19 351 345 343
42 50 66 74 65 56 66 82 82 90 98 101 100 97 96 89 92 101 106 110 116 115 116 113 106 92 83 71 64 68 65 56 57 52 56 42 25 15 21 15 360 1 2
53 58 67 63 63 56 59 69 81 92 94 94 90 86 85 80 70 64 63 65 58 81 86 85 91 92 78 53 32 40 58 64 74 61 50 27 13 1 359 22 23 22 10
60 62 73 73 66 63 60 60 64 87 97 95 93 92 93 90 78 67 52 60 50 39 80 85 80 79 74 29 19 49 47 37 39 11 33 47 49 45 37 34 30 25 15
61 69 70 68 64 62 60 56 58 77 102 107 105 106 104 102 102 100 82 57 63 61 62 66 79 74 73 70 62 56 46 38 41 59 57 43 33 28 25 24 24 32 23